Regional Weather Roundup
Issued by NWS

Home | Current Version | Previous Version | Graphics & Text | Print | Product List | Glossary On
Versions: 1 2 3 4 5 6 7 8 9 10 11 12 13 14 15 16 17 18 19 20 21 22 23 24 25 26 27 28 29 30 31 32 33 34 35 36 37 38 39 40 41 42 43 44 45 46 47 48 49 50
437
ASUS43 KMPX 161101
RWRMN
WEATHER ROUNDUP FOR MINNESOTA
NATIONAL WEATHER SERVICE TWIN CITIES/CHANHASSEN MN
500 AM CST SAT DEC 16 2017


NOTE: "FAIR" INDICATES FEW OR NO CLOUDS BELOW 12,000 FEET WITH NO
SIGNIFICANT WEATHER AND/OR OBSTRUCTIONS TO VISIBILITY. N/A MEANS
CURRENT SKY AND/OR WEATHER CONDITIONS ARE NOT AVAILABLE.

MNZ060>063-068>070-161200-
   Twin Cities Metro

CITY           SKY/WX    TMP DP  RH WIND       PRES   REMARKS
TWIN CITIES    CLOUDY    27  26  96 E8        29.68F WCI  19
ST PAUL        CLOUDY    27  24  89 E3        29.71S
CRYSTAL        CLOUDY    25  20  81 E6        29.68F WCI  18
BLAINE         CLOUDY    25  25 100 E6        29.69R WCI  18
LAKEVILLE      CLOUDY    27  27 100 NE5       29.67R WCI  21
EDEN PRAIRIE   CLOUDY    28  26  92 NE8       29.67R WCI  20
SOUTH ST PAUL  CLOUDY    28  26  93 E7        29.69F WCI  20
LAKE ELMO      FAIR      27  23  86 E7        29.70F WCI  19
$$
MNZ001>005-007-008-013>017-022>024-027-028-161200-
   Northwest Minnesota

CITY           SKY/WX    TMP DP  RH WIND       PRES   REMARKS
BEMIDJI        FLURRIES  15  12  88 E8        29.72S WCI   4
HALLOCK        CLOUDY    16  10  79 E12       29.73S WCI   3
ROSEAU         CLOUDY     9   3  78 E15       29.76F WCI  -8
WARROAD        CLOUDY     9   3  78 E14       29.78F WCI  -8
CROOKSTON      CLOUDY    19  16  86 E10       29.72R WCI   8
FOSSTON        CLOUDY    18  16  93 E8        29.70S WCI   7
DETROIT LAKES  CLOUDY    23  21  93 SE5       29.69R WCI  17
MOORHEAD       PTCLDY    25  21  86 CALM      29.70R
PARK RAPIDS    CLOUDY    19  15  84 E8        29.70R WCI   9
MAHNOMEN       CLOUDY    22  18  85 SE5       29.70R WCI  15
$$
MNZ006-009>011-018-025>026-161200-
   North Central Minnesota

CITY           SKY/WX    TMP DP  RH WIND       PRES   REMARKS
BAUDETTE       FLURRIES   6   1  80 E12       29.80R WCI  -9
FLAG ISLAND    CLOUDY     1  -4  78 E8        29.81F WCI -12
INTL FALLS     CLOUDY     2  -4  76 E8        29.84R WCI -12
WASKISH        CLOUDY    10   7  85 E8        29.78R WCI  -1
BIG FORK       FLURRIES   9   5  85 E3        29.78R
LONGVILLE      CLOUDY    18  12  79 CALM      29.74R
GRAND RAPIDS   CLOUDY    14  11  87 E5        29.77R WCI   6
CRANE LAKE     CLOUDY    -4  -8  84 CALM      29.87S
ORR            CLOUDY     1  -4  78 CALM      29.77S
COOK           CLOUDY     3   0  85 CALM      29.80S
WALKER         CLOUDY    16  13  88 E8        29.72S WCI   5
$$
MNZ012-019>021-037-161200-
   Northeast Minnesota

CITY           SKY/WX    TMP DP  RH WIND       PRES   REMARKS
DULUTH         CLOUDY    17  14  88 E13       29.76F WCI   4
ELY            CLOUDY     0  -6  78 NE3       29.81S
HIBBING        CLOUDY     8   5  87 E5        29.77S WCI   0
EVELETH        CLOUDY     8   3  79 NE5       29.79S WCI   0
DULUTH HARBOR  CLOUDY    19  14  79 E15       29.84S WCI   5
TWO HARBORS    CLOUDY    19  16  86 NE9       29.80R WCI   9
SILVER BAY     CLOUDY    14  12  92 N5        29.81S WCI   6
GRAND MARAIS     N/A      8   2  76 NE8       29.93R WCI  -4
G MARAIS ARPRT FLURRIES  -2  -8  78 N7        29.81S WCI -16
$$
MNZ029>031-032-039>041-046>048-054>057-064-161200-
   West Central Minnesota

CITY           SKY/WX    TMP DP  RH WIND       PRES   REMARKS
FERGUS FALLS   CLOUDY    25  21  86 E6        29.70R WCI  18
WHEATON        CLOUDY    28  27  93 CALM      29.68R
MORRIS         CLOUDY    28  27  93 E7        29.66R WCI  21
ALEXANDRIA     CLOUDY    24  23  96 E10       29.67R FOG     WCI  14
ELBOW LAKE     CLOUDY    26  25  96 SE8       29.67R FOG     WCI  17
WADENA         CLOUDY    19  18  93 E6        29.68F WCI  11
GLENWOOD       CLOUDY    25  23  93 E8        29.68R FOG     WCI  16
APPLETON         N/A     30  28  93 E3        29.66R
BENSON         CLOUDY    28  27  93 SE7       29.68R WCI  21
ORTONVILLE     CLOUDY    30  27  86 CALM      29.66R
MADISON        CLOUDY    34  28  80 CALM      29.66R
WILLMAR        CLOUDY    28  28 100 NE6       29.68R WCI  22
$$
MNZ033>034-036-042>043-049>051-058-059-161200-
   Central Minnesota

CITY           SKY/WX    TMP DP  RH WIND       PRES   REMARKS
ST CLOUD       MOCLDY    21  19  92 NE9       29.69R WCI  11
SAUK CENTRE    CLOUDY    22  20  94 E5        29.69R WCI  15
PAYNESVILLE    CLOUDY    25  25 100 E6        29.69R FOG     WCI  18
AITKIN         CLOUDY    18  12  79 E8        29.73R WCI   7
PINE RIVER     CLOUDY    18  12  79 E9        29.76R WCI   6
BRAINERD       CLOUDY    20  15  81 E8        29.73R WCI  10
STAPLES        CLOUDY    19  18  93 E5        29.71R WCI  13
LITTLE FALLS   CLOUDY    23  18  80 NE5       29.72R WCI  17
LITCHFIELD     FOG       27  27 100 E7        29.68R VSB 3/4 WCI  19
BUFFALO        CLOUDY    25  23  93 NE7       29.70R WCI  17
MAPLE LAKE     CLOUDY    25  24  96 NE5       29.70R WCI  19
HUTCHINSON     CLOUDY    28  28  97 NE8       29.67S FOG     WCI  20
$$
MNZ037-044-045-052-053-161200-
   East Central Minnesota

CITY           SKY/WX    TMP DP  RH WIND       PRES   REMARKS
PRINCETON      CLOUDY    23  19  86 NE6       29.71R WCI  16
MORA           CLOUDY    19  16  86 E5        29.74S WCI  13
CAMBRIDGE      CLOUDY    23  18  80 NE9       29.73R WCI  13
RUSH CITY      CLOUDY    21  18  87 NE6       29.74S WCI  13
MOOSE LAKE     CLOUDY    18  12  79 E3        29.75R
HINCKLEY       CLOUDY    21  18  86 NE8       29.75S WCI  12
CLOQUET        CLOUDY    16  10  79 E7        29.77R WCI   6
MCGREGOR       CLOUDY    19  14  79 E10       29.75S WCI   8
$$
MNZ071>073-080-081-089-090-097-098-161200-
   Southwest Minnesota

CITY           SKY/WX    TMP DP  RH WIND       PRES   REMARKS
MONTEVIDEO     CLOUDY    28  27  93 E3        29.65S
GRANITE FALLS  CLOUDY    25  23  92 CALM      29.67R
CANBY          CLOUDY    35  28  76 W6        29.66S WCI  30
MARSHALL       CLOUDY    31  27  85 W8        29.66R WCI  23
REDWOOD FALLS  CLOUDY    30  28  92 N3        29.65R
OLIVIA         CLOUDY    28  27  93 NE6       29.65R WCI  22
PIPESTONE      CLOUDY    25  21  86 SW7       29.67R WCI  17
WINDOM           N/A     30  18  59 W3        29.65R
WORTHINGTON    CLOUDY    30  25  81 W13       29.67R WCI  20
JACKSON        CLOUDY    32  27  80 W7        29.66R WCI  26
SLAYTON        CLOUDY    32  27  81 W3        29.66R
$$
MNZ065>067-074>077-082>085-091>093-161200-
   South Central Minnesota

CITY           SKY/WX    TMP DP  RH WIND       PRES   REMARKS
MANKATO        CLOUDY    30  26  85 S6        29.66R WCI  24
NEW ULM        CLOUDY    27  23  86 CALM      29.65R
ST JAMES       PTCLDY    28  25  86 SW3       29.67R
FAIRMONT       CLOUDY    32  26  78 W7        29.66R WCI  26
GLENCOE        PTCLDY    29  29 100 NE5       29.65F FOG     WCI  24
FARIBAULT      CLOUDY    25  25 100 CALM      29.67R
OWATONNA       CLOUDY    30  27  86 SE3       29.66S
WASECA         CLOUDY    30  27  86 S3        29.67R
ALBERT LEA     CLOUDY    30  23  74 SW6       29.66R WCI  24
$$
MNZ078>079-086>088-094>096-161200-
   Southeast Minnesota

CITY           SKY/WX    TMP DP  RH WIND       PRES   REMARKS
ROCHESTER      CLOUDY    28  25  88 S7        29.67R WCI  21
RED WING       CLOUDY    27  23  86 E5        29.70R WCI  21
STANTON        CLOUDY    28  25  89 E7        29.66S WCI  20
DODGE CENTER   CLOUDY    28  25  86 S6        29.65S WCI  22
WINONA         PTCLDY    30  28  93 CALM      29.72R
AUSTIN         CLOUDY    27  23  86 CALM      29.67R
PRESTON        CLOUDY    30  24  80 S7        29.67S WCI  23
$$
ABBREVIATIONS USED IN REMARKS
   TC - TEMPERATURES IN CELSIUS
  WCI - WIND CHILL INDEX
   HX - HEAT INDEX
  VSB - VISIBILITY
$$




USA.gov is the U.S. government's official web portal to all federal, state and local government web resources and services.